Torna al catalogo

NINGXIA-1 5

AttivoScienzaLEO
NORAD 44783·PAYLOAD·🇨🇳 China

Lanciato Nov 13, 2019 da Taiyuan Satellite Launch Center

Loading…

Prossimi Passaggi (prossime 24 ore)

TLE

AggiornatoSource: Space-Track

Epoca: Sep 14, 2026, 14:52 UTC

1 44783U 19076E   26257.62013851  .00000042  00000-0  11130-3 0  9992
2 44783  45.0051 139.4993 0010767 213.7970 146.2179 14.02095497350325

Traccia NINGXIA-1 5 in tempo reale con AllMySat

Download on the App Store